Flag for Canada Weather past 2 weeks in Oshawa, Ontario, Canada

Now
73 °F

Scattered clouds.


Feels Like: 75 °F
Forecast: 63 / 74 °F
Wind: No wind

Location: Toronto Buttonville

Current Time: Aug 22, 2014 at 12:11:06 PM

Latest Report: Aug 22, 2014 at 11:00 AM


Visibility: 12 mi

Pressure: 30.01 "Hg

Humidity: 74%

Dew point: 64 °F

Location of OshawaLocation

Historic Weather in Oshawa — Graph

°F

Oshawa temperature yesterday

Maximum temperature yesterday: 79 °F (at 5:00 PM)
Minimum temperature yesterday: 64 °F (at 3:00 AM)
Average temperature yesterday: 71 °F

Past Weeks' High & Low Weather Summary

 TemperatureHumidityPressure
High79 °F (Aug 9, 3:00 PM)100% (Aug 17, 6:00 AM)30.19 "Hg (Aug 17, 6:00 AM)
Low50 °F (Aug 19, 4:00 AM)38% (Aug 15, 5:00 PM)29.67 "Hg (Aug 12, 5:00 PM)
Average66 °F74%29.95 "Hg
* Reported Aug 7 11:00 AM — Aug 22 11:00 AM, Oshawa, Weather by CustomWeather, © 2014

Note: Actual official high and low records may vary slightly from our data, if they occured in-between our weather recording intervals... More about our weather records

Advertising

Oshawa weather history for previous 24 hours

 ConditionsComfort  
Time TempWeatherWind HumidityBarometerVisibility
11:00 AM
Aug 22
73 °FScattered clouds.No wind74%30.01 "Hg12 mi
10:00 AM72 °FScattered clouds.No wind78%30.02 "Hg12 mi
9:54 AMN/ABroken clouds.No windN/AN/A11 mi
9:00 AM68 °FBroken clouds.3 mph83%30.01 "Hg10 mi
8:00 AM64 °FPartly sunny.5 mph94%30.01 "Hg8 mi
7:53 AMN/APartly sunny.5 mphN/AN/A8 mi
7:00 AM64 °FLow clouds.5 mph88%29.99 "Hg7 mi
6:00 AM64 °FLow clouds.6 mph94%29.97 "Hg7 mi
5:00 AM64 °FLow clouds.6 mph94%29.97 "Hg7 mi
4:00 AM64 °FLow clouds.5 mph94%29.98 "Hg8 mi
3:00 AM63 °FPassing clouds.3 mph100%29.98 "Hg10 mi
2:00 AM63 °FPassing clouds.3 mph94%29.98 "Hg15 mi
1:00 AM64 °FPassing clouds.5 mph94%29.98 "Hg15 mi
12:00 AM66 °FPassing clouds.5 mph88%29.98 "Hg15 mi
11:00 PM
Aug 21
66 °FClear.5 mph94%29.98 "Hg15 mi
10:00 PM68 °FPassing clouds.5 mph83%29.97 "Hg15 mi
9:00 PM70 °FPassing clouds.5 mph83%29.97 "Hg15 mi
8:00 PM73 °FPassing clouds.7 mph74%29.96 "Hg15 mi
7:00 PM75 °FScattered clouds.9 mph74%29.95 "Hg15 mi
6:00 PM79 °FScattered clouds.8 mph65%29.93 "Hg15 mi
5:00 PM79 °FScattered clouds.6 mph61%29.93 "Hg15 mi
4:00 PM77 °FScattered clouds.8 mph69%29.93 "Hg15 mi
3:00 PM77 °FScattered clouds.6 mph69%29.94 "Hg15 mi
2:00 PM77 °FScattered showers. Partly sunny.5 mph69%29.94 "Hg14 mi
1:00 PM73 °FSprinkles. Partly sunny.6 mph78%29.96 "Hg9 mi
12:00 PM73 °FPartly sunny.5 mph74%29.96 "Hg9 mi
Weather by CustomWeather, © 2014

See weather overviewHow to use our weather pages